Weather History for Mount Ida, AR

Change the Weather History Date:

Tuesday, September 17, 2013

  Actual Average (KHOT) Record (KHOT)
Temperature  
Mean Temperature 76 °F -  
Max Temperature 90 °F 84 °F 102 °F (1980)
Min Temperature 62 °F 61 °F 46 °F (1993)
Cooling Degree Days 11    
Growing Degree Days 26 (Base 50)    
Moisture  
Dew Point 66 °F    
Average Humidity 81    
Maximum Humidity 97    
Minimum Humidity 46    
Precipitation  
Precipitation 0.00 in - - ()
Sea Level Pressure  
Sea Level Pressure 30.06 in    
Wind  
Wind Speed 1 mph (ESE)    
Max Wind Speed 6 mph    
Max Gust Speed -    
Visibility 7 miles    
Events      
Averages and records for this station are not official NWS values.
T = Trace of Precipitation, MM = Missing Value Source: NWS Daily Summary

Daily Weather History Graph

Daily Weather History Graph

Search for Another Location

Airport:

Trip Planner

Search our weather history database for the weather conditions in past years. The results will help you decide how hot, cold, wet, or windy it might be!

Date:

Astronomy

Sep. 17, 2013 Rise Set
Actual Time 6:58 AM CDT 7:17 PM CDT
Civil Twilight 6:33 AM CDT 7:42 PM CDT
Nautical Twilight 6:04 AM CDT 8:12 PM CDT
Astronomical Twilight 5:34 AM CDT 8:42 PM CDT
Moon 6:03 PM CDT (9/17) 4:57 AM CDT (9/17)
Length of Visible Light 13h 09m
Length of Day
12h 18m
Waxing Gibbous, 96% of the Moon is Illuminated
Sep 17
Waxing Gibbous
Sep 19
Full
Sep 26
Last Quarter
Oct 4
New
Oct 11
First Quarter

Hourly Weather History & Observations

Time (CDT) Temp. Heat Index Dew Point Humidity Pressure Visibility Wind Dir Wind Speed Gust Speed Precip Events Conditions
12:53 AM 73.0 °F - 59.0 °F 61% 30.08 in 10.0 mi Calm Calm - N/A   Clear
1:53 AM 72.0 °F - 61.0 °F 68% 30.08 in 10.0 mi ESE 3.5 mph - N/A   Clear
2:53 AM 70.0 °F - 64.0 °F 81% 30.08 in 9.0 mi Calm Calm - N/A   Clear
3:53 AM 66.0 °F - 63.0 °F 90% 30.08 in 8.0 mi Calm Calm - N/A   Clear
4:53 AM 64.9 °F - 63.0 °F 93% 30.07 in 6.0 mi Calm Calm - N/A   Scattered Clouds
5:53 AM 64.0 °F - 62.1 °F 93% 30.08 in 4.0 mi Calm Calm - N/A   Clear
6:53 AM 63.0 °F - 61.0 °F 93% 30.10 in 4.0 mi Calm Calm - N/A   Clear
7:13 AM 62.6 °F - 60.8 °F 94% 30.12 in 2.5 mi Calm Calm - N/A   Clear
7:35 AM 62.6 °F - 60.8 °F 94% 30.13 in 3.0 mi Calm Calm - N/A   Clear
7:53 AM 64.0 °F - 62.1 °F 93% 30.11 in 4.0 mi Calm Calm - N/A   Clear
8:36 AM 69.8 °F - 66.2 °F 88% 30.13 in 7.0 mi Calm Calm - N/A   Scattered Clouds
8:53 AM 70.0 °F - 66.0 °F 87% 30.11 in 8.0 mi Calm Calm - N/A   Scattered Clouds
9:53 AM 75.0 °F - 66.0 °F 73% 30.10 in 10.0 mi Variable 3.5 mph - N/A   Clear
10:53 AM 78.1 °F - 64.9 °F 64% 30.10 in 10.0 mi Variable 3.5 mph - N/A   Clear
11:53 AM 82.0 °F 84.1 °F 66.0 °F 58% 30.08 in 10.0 mi Calm Calm - N/A   Clear
12:53 PM 84.9 °F 87.1 °F 66.0 °F 53% 30.06 in 10.0 mi Variable 4.6 mph - N/A   Clear
1:53 PM 90.0 °F 92.8 °F 66.9 °F 46% 30.02 in 10.0 mi Variable 3.5 mph - N/A   Clear
2:53 PM 86.0 °F 88.8 °F 66.9 °F 53% 30.01 in 10.0 mi Calm Calm - N/A   Clear
3:53 PM 80.1 °F 83.2 °F 70.0 °F 71% 30.00 in 10.0 mi Variable 5.8 mph - N/A   Overcast
4:53 PM 79.0 °F - 69.1 °F 72% 30.00 in 10.0 mi Calm Calm - N/A   Mostly Cloudy
5:53 PM 78.1 °F - 70.0 °F 76% 29.99 in 10.0 mi Calm Calm - N/A   Clear
6:53 PM 75.9 °F - 70.0 °F 82% 29.99 in 9.0 mi Calm Calm - N/A   Partly Cloudy
7:53 PM 73.9 °F - 70.0 °F 87% 29.99 in 9.0 mi Calm Calm - N/A   Clear
8:53 PM 72.0 °F - 69.1 °F 91% 30.00 in 7.0 mi Calm Calm - N/A   Clear
9:53 PM 70.0 °F - 69.1 °F 97% 30.01 in 5.0 mi Calm Calm - N/A   Scattered Clouds
10:53 PM 70.0 °F - 68.0 °F 93% 30.01 in 3.0 mi Calm Calm - N/A   Clear
11:33 PM 69.8 °F - 68.0 °F 94% 30.03 in 2.5 mi Calm Calm - N/A   Clear
11:41 PM 69.8 °F - 68.0 °F 94% 30.03 in 4.0 mi Calm Calm - N/A   Clear
11:53 PM 69.1 °F - 68.0 °F 96% 30.01 in 3.0 mi Calm Calm - N/A   Clear